Flag for Hungary Weather past 2 weeks in Budapest, Hungary

Now
50 °F

Broken clouds.


Feels Like: 47 °F
Forecast: 28 / 39 °F
Wind: 7 mph from Southwest

Location: Ferenc Liszt International Airport

Current Time: Dec 25, 2014 at 12:30:13 PM

Latest Report: Dec 25, 2014 at 12:00 PM


Visibility: N/A

Pressure: 30.09 "Hg

Humidity: 62%

Dew point: 37 °F

Location of BudapestLocation

Historic Weather in Budapest — Graph

°F

Budapest temperature yesterday

Maximum temperature yesterday: 48 °F (at 12:30 PM)
Minimum temperature yesterday: 27 °F (at 6:30 AM)
Average temperature yesterday: 40 °F

Past Weeks' High & Low Weather Summary

 TemperatureHumidityPressure
High55 °F (Dec 19, 1:30 PM)100% (Dec 12, 10:00 PM)30.39 "Hg (Dec 12, 10:00 PM)
Low25 °F (Dec 14, 7:00 AM)40% (Dec 20, 1:30 PM)29.83 "Hg (Dec 17, 1:30 AM)
Average39 °F84%30.09 "Hg
* Reported Dec 10 11:00 AM — Dec 25 11:30 AM, Budapest, Weather by CustomWeather, © 2014

Note: Actual official high and low records may vary slightly from our data, if they occured in-between our weather recording intervals... More about our weather records

Advertising

Budapest weather history for previous 24 hours

 ConditionsComfort  
Time TempWeatherWind HumidityBarometerVisibility
11:30 AM
Dec 25
48 °FPartly sunny.13 mph66%30.09 "HgN/A
11:00 AM48 °FScattered clouds.12 mph66%30.09 "HgN/A
10:30 AM46 °FScattered clouds.8 mph71%30.09 "HgN/A
10:00 AM43 °FBroken clouds.6 mph81%30.12 "HgN/A
9:30 AM41 °FPartly sunny.6 mph87%30.09 "HgN/A
9:00 AM41 °FPartly sunny.3 mph87%30.09 "HgN/A
8:30 AM39 °FPartly sunny.5 mph93%30.09 "HgN/A
8:00 AM39 °FBroken clouds.3 mph93%30.09 "HgN/A
7:30 AM37 °FPartly sunny.3 mph93%30.09 "HgN/A
7:00 AM37 °FPassing clouds.2 mph93%30.09 "HgN/A
6:30 AM37 °FPassing clouds.5 mph87%30.09 "HgN/A
6:00 AM37 °FPassing clouds.3 mph87%30.09 "HgN/A
5:30 AM39 °FPassing clouds.5 mph81%30.09 "HgN/A
4:30 AM37 °FClear.5 mph81%30.09 "Hg10 mi
4:00 AM39 °FClear.7 mph75%30.09 "Hg10 mi
3:30 AM41 °FClear.13 mph70%30.12 "Hg10 mi
3:00 AM41 °FClear.12 mph70%30.12 "Hg10 mi
2:30 AM39 °FClear.12 mph75%30.12 "Hg10 mi
2:00 AM39 °FClear.8 mph75%30.12 "Hg10 mi
1:30 AM37 °FClear.12 mph81%30.09 "Hg10 mi
1:00 AM39 °FClear.10 mph75%30.09 "Hg10 mi
12:30 AM39 °FPassing clouds.8 mph75%30.09 "HgN/A
12:00 AM46 °FClear.21 mph57%30.09 "Hg10 mi
11:30 PM
Dec 24
45 °FClear.13 mph61%30.09 "Hg10 mi
11:00 PM45 °FClear.15 mph61%30.09 "Hg10 mi
10:30 PM45 °FClear.10 mph61%30.09 "Hg10 mi
10:00 PM45 °FClear.14 mph61%30.09 "Hg10 mi
9:30 PM45 °FClear.16 mph61%30.09 "Hg10 mi
9:00 PM43 °FClear.16 mph66%30.09 "Hg10 mi
8:30 PM41 °FClear.13 mph76%30.09 "Hg10 mi
8:00 PM37 °FPassing clouds.8 mph81%30.09 "HgN/A
7:30 PM41 °FClear.12 mph81%30.09 "Hg10 mi
7:00 PM41 °FClear.13 mph81%30.09 "Hg10 mi
6:30 PM43 °FClear.10 mph81%30.07 "Hg10 mi
6:00 PM43 °FClear.3 mph87%30.07 "Hg10 mi
5:30 PM43 °FClear.10 mph87%30.07 "Hg10 mi
5:00 PM43 °FClear.12 mph87%30.09 "Hg10 mi
4:30 PM43 °FClear.9 mph87%30.09 "Hg10 mi
4:00 PM43 °FClear.7 mph87%30.09 "Hg10 mi
3:30 PM46 °FSunny.8 mph82%30.09 "Hg10 mi
3:00 PM48 °FSunny.8 mph76%30.09 "Hg10 mi
2:30 PM48 °FSunny.9 mph71%30.09 "Hg10 mi
2:00 PM48 °FSunny.9 mph71%30.09 "Hg10 mi
1:30 PM48 °FSunny.9 mph71%30.09 "Hg10 mi
1:00 PM48 °FSunny.8 mph71%30.09 "Hg10 mi
12:30 PM48 °FSunny.10 mph71%30.09 "Hg10 mi
12:00 PM46 °FPassing clouds.10 mph76%30.12 "HgN/A
Weather by CustomWeather, © 2014

See weather overviewHow to use our weather pages